Location: Fours
(44.3167°N, 6.7000°E)
Time: 05:23:36
(UTC+00:00)

CENTAUR R/B - Pass Details

Date: 30 November 2020
Orbit: 750 x 1438 km, 63.4° (Epoch: 11 January)

Event Time Altitude Azimuth Distance (km) Brightness Sun altitude
Rises 18:46:55 0° 212° (SSW) 3,360 5.8 -30.0°
Reaches altitude 10° 18:49:12 10° 211° (SSW) 2,497 5.0 -30.4°
Enters shadow 18:53:41 58° 202° (SSW) 1,089 2.7 -31.2°
